Location: Kumla
(59.1265°N, 15.1401°E)
Time: 11:18:01
(UTC+01:00)

Vanguard 2 Rocket - Pass Details

Date: 07 December 2023
Orbit: 554 x 3309 km, 32.9° (Epoch: 27 February)

Event Time Altitude Azimuth Distance (km) Brightness Sun altitude
Rises 16:40:42 0° 246° (WSW) 6,827 13.6 -10.8°
Reaches altitude 10° 16:46:02 10° 237° (WSW) 6,052 12.6 -11.4°
Maximum altitude 17:00:46 28° 189° (S) 4,877 10.9 -13.1°
Drops below altitude 10° 17:14:50 10° 140° (SE) 5,762 10.8 -14.8°
Sets 17:19:45 0° 130° (SE) 6,460 10.9 -15.4°
